Location: Newark
(12.4436°N, 0.6167°W)
Time: 21:23:26
(UTC+00:00)

Vanguard 1 - Pass Details

Date: 12 December 2019
Orbit: 651 x 3832 km, 34.2° (Epoch: 22 January)

Event Time Altitude Azimuth Distance (km) Brightness Sun altitude
Rises 23:04:21 0° 208° (SSW) 5,274 14.0 -73.7°
Enters shadow 23:06:57 - 201° (SSW) 4,776 13.7 -74.2°
Reaches altitude 10° 23:07:39 10° 199° (SSW) 4,657 - -74.3°
Maximum altitude 23:20:46 40° 134° (SE) 3,978 - -76.4°
Drops below altitude 10° 23:40:22 10° 73° (ENE) 6,888 - -78.7°
Exits shadow 23:42:05 - 71° (ENE) 7,189 14.3 -78.8°
Sets 23:46:33 0° 67° (ENE) 7,972 14.6 -79.1°
